Weather History for EDDN - November, 2012

Change the Weather History Date:

Monday, November 12, 2012

  Actual Average Record
Temperature  
Mean Temperature 42 °F -  
Max Temperature 46 °F 42 °F - (-1)
Min Temperature 37 °F 31 °F - (-1)
Degree Days  
Heating Degree Days 24    
Moisture  
Dew Point 40 °F    
Average Humidity 91    
Maximum Humidity 100    
Minimum Humidity 74    
Precipitation  
Precipitation 0.00 in 0.06 in - ()
Sea Level Pressure  
Sea Level Pressure 30.27 in    
Wind  
Wind Speed 2 mph ()    
Max Wind Speed 7 mph    
Max Gust Speed -    
Visibility 5.2 miles    
Events Fog    
Averages and records for this station are not official NWS values.
T = Trace of Precipitation, MM = Missing Value Source: Averaged Metar Reports

Daily Weather History Graph

Daily Weather History Graph

Search for Another Location

Airport or City:

Trip Planner

Search our weather history database for the weather conditions in past years. The results will help you decide how hot, cold, wet, or windy it might be!

Date:

Astronomy

Nov. 12, 2012 Rise Set
Actual Time 7:22 AM CET 4:36 PM CET
Civil Twilight 6:47 AM CET 5:11 PM CET
Nautical Twilight 6:09 AM CET 5:50 PM CET
Astronomical Twilight 5:31 AM CET 6:27 PM CET
Moon 5:21 AM CET (11/12) 3:34 PM CET (11/12)
Length of Visible Light 10h 23m
Length of Day
9h 14m
Waning Crescent, 3% of the Moon is Illuminated
Nov 12
Waning Crescent
Nov 13
New
Nov 20
First Quarter
Nov 28
Full
Dec 6
Last Quarter

Hourly Weather History & Observations

Time (CET) Temp. Windchill Dew Point Humidity Pressure Visibility Wind Dir Wind Speed Gust Speed Precip Events Conditions
12:00 AM 45 °F - 44 °F 94% 30.13 in 6 mi WSW 4.5 mph - - Fog Patches of Fog
12:20 AM 44.6 °F - 44.6 °F 100% 30.12 in 6.2 mi West 2.3 mph - N/A Fog Shallow Fog
12:50 AM 44.6 °F 43.1 °F 42.8 °F 93% 30.12 in 6.2 mi West 3.5 mph - N/A Fog Shallow Fog
1:00 AM 45 °F - 44 °F 92% 30.16 in 6 mi WSW 4.5 mph - - Fog Patches of Fog
1:20 AM 44.6 °F 43.1 °F 42.8 °F 93% 30.12 in 6.2 mi WNW 3.5 mph - N/A Fog Shallow Fog
1:50 AM 44.6 °F - 42.8 °F 93% 30.12 in 6.2 mi ESE 2.3 mph - N/A Fog Shallow Fog
2:00 AM 45 °F - 43 °F 92% 30.17 in 6 mi West 2.2 mph - - Fog Patches of Fog
2:20 AM 44.6 °F - 42.8 °F 93% 30.15 in 6.2 mi Calm Calm - N/A Fog Shallow Fog
2:50 AM 44.6 °F - 42.8 °F 93% 30.15 in 5.0 mi Calm Calm - N/A Fog Shallow Fog
3:00 AM 44 °F - 43 °F 97% 30.19 in 5 mi West 2.2 mph - - Fog Patches of Fog
3:20 AM 44.6 °F - 42.8 °F 93% 30.15 in 5.0 mi NNW 1.2 mph - N/A Fog Shallow Fog
3:50 AM 44.6 °F - 42.8 °F 93% 30.15 in 5.0 mi Variable 1.2 mph - N/A Fog Fog
4:20 AM 42.8 °F - 42.8 °F 100% 30.15 in 5.0 mi Variable 1.2 mph - N/A Fog Fog
4:50 AM 42.8 °F - 41.0 °F 93% 30.15 in 4.3 mi Variable 1.2 mph - N/A Fog Shallow Fog
5:00 AM 42 °F - 42 °F 99% 30.20 in 4 mi ESE 2.2 mph - - Fog Patches of Fog
5:20 AM 42.8 °F - 42.8 °F 100% 30.18 in 4.3 mi Variable 1.2 mph - N/A Fog Shallow Fog
5:50 AM 41.0 °F - 41.0 °F 100% 30.18 in 1.2 mi Variable 1.2 mph - N/A Fog Patches of Fog
6:00 AM 42 °F - 41 °F 95% 30.22 in 1 mi Calm Calm - - Fog Patches of Fog
6:20 AM 41.0 °F - 41.0 °F 100% 30.18 in 1.2 mi Variable 1.2 mph - N/A Fog Patches of Fog
6:50 AM 41.0 °F - 41.0 °F 100% 30.21 in 1.6 mi Variable 1.2 mph - N/A Fog Patches of Fog
7:00 AM 42 °F - 41 °F 97% 30.24 in 2 mi West 2.2 mph - - Fog Patches of Fog
7:20 AM 41.0 °F - 41.0 °F 100% 30.21 in 2.5 mi Calm Calm - N/A   Mostly Cloudy
7:50 AM 41.0 °F - 41.0 °F 100% 30.21 in 2.5 mi Variable 2.3 mph - N/A Fog Fog
8:00 AM 41 °F - 41 °F 99% 30.26 in 2 mi WNW 2.2 mph - - Fog Light Fog
8:20 AM 42.8 °F - 42.8 °F 100% 30.21 in 2.2 mi NW 2.3 mph - N/A   Mostly Cloudy
8:50 AM 41.0 °F 38.0 °F 41.0 °F 100% 30.21 in 2.2 mi WNW 4.6 mph - N/A   Mostly Cloudy
9:00 AM 42 °F - 41 °F 97% 30.27 in 2 mi NW 6.7 mph - -   Mist
9:20 AM 41.0 °F 38.0 °F 41.0 °F 100% 30.24 in 0.4 mi NW 4.6 mph - N/A Fog Fog
9:50 AM 42.8 °F 41.1 °F 42.8 °F 100% 30.24 in 1.0 mi NW 3.5 mph - N/A   Overcast
10:20 AM 41.0 °F - 41.0 °F 100% 30.27 in 0.6 mi Variable 2.3 mph - N/A   Overcast
10:50 AM 42.8 °F - 42.8 °F 100% 30.27 in 1.1 mi Variable 1.2 mph - N/A   Overcast
11:00 AM 42 °F - 42 °F 99% 30.32 in 1 mi East 2.2 mph - -   Mist
11:20 AM 42.8 °F - 42.8 °F 100% 30.27 in 2.5 mi Variable 1.2 mph - N/A   Overcast
11:50 AM 42.8 °F - 42.8 °F 100% 30.27 in 2.8 mi Variable 1.2 mph - N/A   Mostly Cloudy
12:00 PM 44 °F - 43 °F 96% 30.32 in 3 mi NW 2.2 mph - -   Mist
12:20 PM 44.6 °F - 44.6 °F 100% 30.27 in 3.1 mi SW 2.3 mph - N/A   Mostly Cloudy
12:50 PM 44.6 °F - 42.8 °F 93% 30.27 in 5.6 mi Variable 2.3 mph - N/A   Mostly Cloudy
1:00 PM 45 °F - 42 °F 87% 30.31 in 6 mi SW 2.2 mph - -   Partly Cloudy
1:20 PM 44.6 °F - 42.8 °F 93% 30.24 in 6.2 mi Variable 1.2 mph - N/A   Mostly Cloudy
1:50 PM 44.6 °F 43.1 °F 42.8 °F 93% 30.27 in 6.2 mi WNW 3.5 mph - N/A   Mostly Cloudy
2:00 PM 46 °F - 42 °F 80% 30.30 in 9 mi NW 2.2 mph - -   Overcast
2:20 PM 44.6 °F - 42.8 °F 93% 30.27 in 6.2 mi WNW 2.3 mph - N/A   Mostly Cloudy
2:50 PM 44.6 °F 41.4 °F 41.0 °F 87% 30.27 in 6.2 mi WNW 5.8 mph - N/A   Mostly Cloudy
3:00 PM 45 °F - 41 °F 82% 30.32 in 9 mi NW 6.7 mph - -   Mostly Cloudy
3:20 PM 44.6 °F 43.1 °F 41.0 °F 87% 30.30 in 6.2 mi WNW 3.5 mph - N/A   Mostly Cloudy
3:50 PM 44.6 °F - 41.0 °F 87% 30.30 in 6.2 mi NW 2.3 mph - N/A   Mostly Cloudy
4:20 PM 44.6 °F 43.1 °F 39.2 °F 81% 30.30 in 6.2 mi WNW 3.5 mph - N/A   Mostly Cloudy
4:50 PM 44.6 °F - 39.2 °F 81% 30.33 in 6.2 mi WNW 2.3 mph - N/A   Mostly Cloudy
5:00 PM 44 °F - 39 °F 78% 30.36 in 10 mi WNW 4.5 mph - -   Overcast
5:20 PM 42.8 °F - 39.2 °F 87% 30.33 in 6.2 mi NW 2.3 mph - N/A   Mostly Cloudy
5:50 PM 42.8 °F - 39.2 °F 87% 30.33 in 6.2 mi WNW 2.3 mph - N/A   Mostly Cloudy
6:00 PM 44 °F - 39 °F 76% 30.37 in 11 mi WNW 4.5 mph - -   Overcast
6:20 PM 42.8 °F 39.3 °F 39.2 °F 87% 30.33 in 6.2 mi WNW 5.8 mph - N/A   Mostly Cloudy
6:50 PM 42.8 °F 38.6 °F 35.6 °F 76% 30.36 in 6.2 mi West 6.9 mph - N/A   Mostly Cloudy
7:00 PM 42 °F - 36 °F 74% 30.40 in 11 mi WNW 6.7 mph - -   Overcast
7:20 PM 41.0 °F 37.1 °F 35.6 °F 81% 30.36 in 6.2 mi WNW 5.8 mph - N/A   Scattered Clouds
7:50 PM 39.2 °F 35.9 °F 33.8 °F 81% 30.36 in - NW 4.6 mph - N/A   Clear
8:00 PM 39 °F - 35 °F 78% 30.42 in 11 mi WNW 6.7 mph - -   Scattered Clouds
8:20 PM 39.2 °F - 33.8 °F 81% 30.36 in 6.2 mi Variable 1.2 mph - N/A   Mostly Cloudy
8:50 PM 39.2 °F - 35.6 °F 87% 30.36 in 6.2 mi Variable 2.3 mph - N/A   Mostly Cloudy
9:00 PM 40 °F - 35 °F 75% 30.43 in 12 mi SSW 4.5 mph - -   Mostly Cloudy
9:20 PM 39.2 °F - 35.6 °F 87% 30.39 in 6.2 mi Calm Calm - N/A   Mostly Cloudy
9:50 PM 39.2 °F - 35.6 °F 87% 30.39 in 6.2 mi Variable 1.2 mph - N/A   Mostly Cloudy
10:20 PM 39.2 °F - 35.6 °F 87% 30.39 in 6.2 mi Variable 1.2 mph - N/A   Mostly Cloudy
10:50 PM 37.4 °F - 35.6 °F 93% 30.39 in 6.2 mi Variable 1.2 mph - N/A   Mostly Cloudy
11:00 PM 38 °F - 35 °F 85% 30.45 in 12 mi SE 2.2 mph - -   Mostly Cloudy
11:20 PM 37.4 °F - 35.6 °F 93% 30.39 in 6.2 mi Variable 2.3 mph - N/A Fog Shallow Fog
11:50 PM 37.4 °F - 33.8 °F 87% 30.39 in 6.2 mi East 2.3 mph - N/A   Mostly Cloudy